Weather History for 47759 - February, 2014

Change the Weather History Date:

Friday, February 21, 2014

  Actual Average Record
Temperature  
Mean Temperature 39 °F -  
Max Temperature 46 °F 53 °F - ()
Min Temperature 32 °F 36 °F - ()
Degree Days  
Heating Degree Days 26    
Moisture  
Dew Point 27 °F    
Average Humidity 55    
Maximum Humidity 71    
Minimum Humidity 33    
Precipitation  
Precipitation 0.00 in 0.13 in - ()
Sea Level Pressure  
Sea Level Pressure 30.32 in    
Wind  
Wind Speed 4 mph ()    
Max Wind Speed 14 mph    
Max Gust Speed -    
Visibility 11.5 miles    
Events Snow    
T = Trace of Precipitation, MM = Missing Value Source: Averaged Metar Reports

Daily Weather History Graph

Daily Weather History Graph

Search for Another Location

Airport or City:

Trip Planner

Search our weather history database for the weather conditions in past years. The results will help you decide how hot, cold, wet, or windy it might be!

Date:

Astronomy

Feb. 21, 2014 Rise Set
Actual Time 6:37 AM JST 5:44 PM JST
Civil Twilight 6:11 AM JST 6:10 PM JST
Nautical Twilight 5:41 AM JST 6:40 PM JST
Astronomical Twilight 5:12 AM JST 7:09 PM JST
Moon 11:46 PM JST (2/21) 9:49 AM JST (2/21)
Length of Visible Light 11h 59m
Length of Day
11h 07m
Waning Gibbous, 67% of the Moon is Illuminated
Feb 21
Waning Gibbous
Feb 23
Last Quarter
Mar 1
New
Mar 8
First Quarter
Mar 17
Full

Hourly Weather History & Observations

Time (JST) Temp. Dew Point Humidity Pressure Visibility Wind Dir Wind Speed Gust Speed Precip Events Conditions
12:00 AM 37 °F 28 °F 59% 30.26 in - NE 2.3 mph - -  
1:00 AM 36 °F 27 °F 60% 30.26 in - NNW 3.5 mph - -  
2:00 AM 35 °F 27 °F 64% 30.27 in - West 2.3 mph - -  
3:00 AM 35 °F 27 °F 61% 30.27 in 12 mi SSW 2.3 mph - -   Scattered Clouds
4:00 AM 34 °F 27 °F 67% 30.27 in - West 3.5 mph - -  
5:00 AM 33 °F 27 °F 70% 30.28 in - South 2.3 mph - -  
6:00 AM 33 °F 27 °F 70% 30.30 in - SW 2.3 mph - -  
7:00 AM 33 °F 27 °F 71% 30.31 in - NNE 1.2 mph - -  
8:00 AM 34 °F 28 °F 70% 30.32 in - NW 1.2 mph - -  
9:00 AM 36 °F 29 °F 66% 30.33 in 6 mi WNW 3.5 mph - - Snow Light Snow Showers
10:00 AM 41 °F 30 °F 55% 30.32 in - NE 2.3 mph - -  
11:00 AM 43 °F 28 °F 42% 30.31 in - NW 3.5 mph - -  
12:00 PM 43 °F 28 °F 43% 30.31 in - NNE 4.6 mph - -  
1:00 PM 45 °F 29 °F 40% 30.29 in - NNE 11.5 mph - -  
2:00 PM 44 °F 25 °F 33% 30.29 in - NNW 13.8 mph - -  
3:00 PM 43 °F 24 °F 34% 30.31 in 19 mi NNW 11.5 mph - - Snow Light Snow Showers
4:00 PM 42 °F 25 °F 38% 30.32 in - NNW 12.7 mph - -  
5:00 PM 40 °F 25 °F 42% 30.34 in - NNW 11.5 mph - -  
6:00 PM 38 °F 26 °F 51% 30.35 in - NNW 6.9 mph - -  
7:00 PM 37 °F 28 °F 59% 30.37 in - NNW 4.6 mph - -  
8:00 PM 37 °F 28 °F 58% 30.38 in - NW 3.5 mph - -  
9:00 PM 37 °F 27 °F 57% 30.40 in 9 mi NW 5.8 mph - - Snow Light Snow Showers
10:00 PM 36 °F 27 °F 61% 30.40 in - West 3.5 mph - -  
11:00 PM 36 °F 27 °F 60% 30.40 in - West 3.5 mph - -